Location: Baia Mare
(47.6567°N, 23.5850°E)
Time: 02:20:05
(UTC+03:00)

ISS - Pass Details

Date: 13 September 2018
Orbit: 403 x 408 km, 51.6° (Epoch: 23 September)

Event Time Altitude Azimuth Distance (km) Brightness Sun altitude
Exits shadow 06:05:56 - 293° (WNW) 1,552 -1.3 -9.7°
Reaches altitude 10° 06:06:09 10° 293° (WNW) 1,465 -1.5 -9.7°
Maximum altitude 06:09:26 80° 207° (SSW) 415 -3.9 -9.2°
Drops below altitude 10° 06:12:42 10° 120° (ESE) 1,456 -0.3 -8.6°
Sets 06:14:46 0° 119° (ESE) 2,312 0.8 -8.3°
